[[{"header":{"parameterUnit":"m.s-1","parameterCategory":1,"la1":30.2991,"la2":30.254,"lo1":-89.0895,"lo2":-89.0444,"dy":0.0017,"dx":0.0017,"nx":28,"ny":28,"refTime":"2025-12-14T09:00:00:Z","depth":0,"parameterNumber":2,"parameterNumberName":"U-component_of_WINDS"},"data":[0,0,0,0,0,0,0,0,0,0,0,0,0,0,0,0,0,0,0,0,0,0,0,0,0,0,0,0,0,0,0,0,0,0,0,0,0,0,0,0,0,0,0,0,0,0,0,0,0,0,0,0,0,0,0,0,0,0,0.2252,0.2252,0,0.2249,0.2249,0.2249,0.2215,0.2215,0.2214,0.2213,0.2211,0.2212,0.2213,0,0,0,0,0,0,0,0,0,0,0,0,0,0.2229,0.2229,0.2252,0.2252,0.2252,0.2249,0.2249,0.2249,0.2216,0.2215,0.2214,0.2213,0.2211,0.2212,0.2213,0,0,0,0,0,0,0,0,0,0,0,0,0,0.2234,0.223,0.2252,0.2235,0.2233,0.2249,0.2249,0.2249,0.2216,0.2215,0.2213,0.2212,0.2211,0.2212,0.2213,0.2246,0,0,0.2216,0.2217,0,0,0,0,0,0,0,0,0.2234,0.2235,0.2237,0.2236,0.2234,0.2231,0.2241,0.2248,0.2216,0.2222,0.2213,0.2211,0.2219,0.2219,0.2222,0.2246,0.2246,0.2217,0.2217,0.2218,0.2218,0,0,0,0,0,0,0,0.2233,0.2235,0.2251,0.2237,0.2235,0.2228,0.2227,0.2242,0.2228,0.2222,0.2219,0.2219,0.2218,0.2221,0.2222,0.2246,0.2216,0.2217,0.2218,0.2219,0.2299,0.23,0,0,0,0,0,0,0.2235,0.2235,0.2251,0.2251,0.2231,0.2229,0.2228,0.2234,0.2228,0.2226,0.2221,0.2218,0.222,0.222,0.2221,0.2262,0.2218,0.2219,0.2219,0.2297,0.2299,0.23,0,0,0,0,0,0,0.2235,0.2237,0.2251,0.2242,0.2243,0.2231,0.2237,0.2234,0.2237,0.2227,0.2224,0.2226,0.2219,0.222,0.224,0.2261,0.2219,0.222,0.2295,0.2298,0.23,0.2341,0,0,0,0,0,0,0.2234,0.2237,0.2249,0.2243,0.2244,0.227,0.2238,0.2235,0.2239,0.2236,0.2231,0.2229,0.2218,0.2239,0.2242,0.2262,0.2221,0.2294,0.2296,0.2299,0.2338,0.2344,0.235,0,0,0,0,0,0.2234,0.226,0.225,0.2252,0.2259,0.2271,0.2272,0.2258,0.2241,0.2253,0.2247,0.2229,0.2258,0.2241,0.2244,0.2265,0.2292,0.2296,0.2299,0.2335,0.2343,0.235,0,0,0,0,0,0,0.227,0.2259,0.2247,0.2273,0.2273,0.2265,0.2281,0.2266,0.2272,0.2268,0.225,0.225,0.2274,0.2271,0.2253,0.2297,0.2272,0.2276,0.2299,0.2306,0.2312,0.2314,0.2222,0,0,0,0,0,0.2281,0.2291,0.2281,0.2305,0.2306,0.2293,0.2298,0.2287,0.2287,0.2287,0.2282,0.2283,0.2292,0.2298,0.2306,0.2336,0.2336,0.2352,0.2358,0.2363,0.2368,0.2386,0.2394,0.2311,0.2311,0.2311,0,0,0.2303,0.2299,0.2307,0.2312,0.2311,0.2324,0.2294,0.2307,0.2317,0.2289,0.2309,0.2305,0.2305,0.2331,0.2343,0.233,0.239,0.2367,0.2371,0.2373,0.239,0.2398,0.2405,0.2313,0.2313,0.2313,0,0,0.2352,0.2348,0.2369,0.2369,0.2367,0.2359,0.2364,0.2358,0.2355,0.2375,0.2355,0.2365,0.2381,0.2383,0.2385,0.2435,0.242,0.2438,0.247,0.2488,0.2495,0.2501,0.2521,0.2528,0.2442,0.2442,0.2442,0,0.2381,0.2398,0.2381,0.2397,0.2401,0.2376,0.2397,0.2398,0.2399,0.2403,0.2388,0.2408,0.2406,0.2434,0.2446,0.2448,0.2455,0.2439,0.2495,0.2501,0.2506,0.2525,0.2533,0.2444,0.2444,0.2444,0.2443,0,0.2435,0.2447,0.2464,0.2467,0.2472,0.249,0.2477,0.2484,0.2473,0.2466,0.2488,0.2484,0.2492,0.2497,0.2485,0.2523,0.2516,0.2498,0.2473,0.2517,0.2535,0.2541,0.2447,0.2447,0.2446,0.2445,0,0,0.2507,0.25,0.2507,0.2509,0.2506,0.2516,0.2533,0.2541,0.2549,0.255,0.2566,0.258,0.2565,0.2568,0.2556,0.2572,0.2615,0.2553,0.2552,0.2567,0.2659,0.2675,0.2683,0.2604,0.2605,0.2606,0.266,0,0.2556,0.2586,0.2572,0.2604,0.2617,0.2593,0.2609,0.2609,0.2604,0.2614,0.2607,0.2619,0.2596,0.2598,0.2612,0.2607,0.2634,0.2602,0.262,0.2621,0.2624,0.2692,0.2708,0.276,0.2667,0.2668,0.2669,0,0.2617,0.2623,0.2656,0.2653,0.2658,0.2672,0.2679,0.2688,0.2689,0.2684,0.2688,0.2673,0.2691,0.2664,0.269,0.2669,0.2675,0.2674,0.2675,0.2679,0.265,0.27,0.2775,0.2785,0.2679,0.2678,0.2678,0,0.267,0.2685,0.2708,0.271,0.2706,0.2717,0.2716,0.2715,0.2721,0.2726,0.273,0.2738,0.2743,0.2749,0.2737,0.2718,0.2766,0.2737,0.2764,0.2765,0.2777,0.2777,0.2858,0.2777,0.2777,0.2776,0.2776,0,0.2728,0.275,0.2732,0.2747,0.2771,0.2754,0.278,0.2776,0.2775,0.2789,0.2768,0.2782,0.2764,0.2776,0.2767,0.2791,0.2793,0.2791,0.2788,0.2794,0.2795,0.28,0.2798,0.2778,0.2778,0.2778,0.2777,0,0.2792,0.2781,0.2805,0.2799,0.2798,0.2817,0.2812,0.2826,0.2818,0.2836,0.284,0.2829,0.2842,0.283,0.2842,0.2836,0.287,0.2861,0.287,0.2869,0.2898,0.2896,0.2986,0.2999,0.2907,0.2908,0.2909,0,0.2831,0.2848,0.2845,0.2853,0.2853,0.2865,0.2872,0.2856,0.2863,0.2866,0.288,0.2891,0.29,0.2922,0.2916,0.2926,0.2919,0.295,0.2921,0.2927,0.2923,0.2924,0.2927,0.2957,0.2958,0.2959,0.296,0,0.2903,0.2897,0.2906,0.2915,0.2923,0.2929,0.2933,0.294,0.2924,0.2934,0.2947,0.2954,0.2968,0.298,0.2988,0.2988,0.2972,0.2968,0.2976,0.2984,0.299,0.299,0.289,0.2967,0.2966,0.2966,0.2965,0.2965,0.2958,0.2973,0.2973,0.2985,0.2986,0.2991,0.3004,0.2999,0.301,0.302,0.3009,0.3027,0.3028,0.3037,0.3039,0.3053,0.304,0.305,0.3053,0.3056,0.3062,0.2985,0.3053,0.3053,0.3053,0.3053,0.3053,0,0.3031,0.303,0.3041,0.3048,0.3058,0.3041,0.3045,0.3055,0.307,0.3073,0.3082,0.3099,0.3111,0.3106,0.3117,0.3129,0.3123,0.3133,0.3134,0.3134,0.3071,0.3065,0.3138,0.3138,0.3138,0.3138,0.3138,0.3138,0.307,0.3096,0.3089,0.3115,0.3114,0.3131,0.3135,0.314,0.3142,0.3162,0.3172,0.3168,0.3168,0.3179,0.319,0.3189,0.3195,0.3209,0.3205,0.3147,0.3138,0.313,0.3125,0.321,0.321,0.3267,0.3268,0.3268]},{"header":{"parameterUnit":"m.s-1","parameterCategory":1,"la1":30.2991,"la2":30.254,"lo1":-89.0895,"lo2":-89.0444,"dy":0.0017,"dx":0.0017,"nx":28,"ny":28,"refTime":"2025-12-14T09:00:00:Z","depth":0,"parameterNumber":3,"parameterNumberName":"V-component_of_WINDS"},"data":[0,0,0,0,0,0,0,0,0,0,0,0,0,0,0,0,0,0,0,0,0,0,0,0,0,0,0,0,0,0,0,0,0,0,0,0,0,0,0,0,0,0,0,0,0,0,0,0,0,0,0,0,0,0,0,0,0,0,0.2632,0.2633,0,0.271,0.271,0.2711,0.2742,0.2742,0.2742,0.2742,0.2822,0.2824,0.2826,0,0,0,0,0,0,0,0,0,0,0,0,0,0.2513,0.2515,0.2632,0.2633,0.2634,0.2709,0.271,0.2712,0.2742,0.2742,0.2742,0.2741,0.2821,0.2824,0.2826,0,0,0,0,0,0,0,0,0,0,0,0,0,0.2575,0.2516,0.2632,0.2658,0.2662,0.2709,0.271,0.2712,0.2742,0.2742,0.2742,0.2741,0.282,0.2823,0.2827,0.2854,0,0,0.2837,0.2839,0,0,0,0,0,0,0,0,0.2572,0.258,0.2654,0.2657,0.266,0.2716,0.2698,0.276,0.2742,0.2712,0.2742,0.2741,0.2787,0.2793,0.2808,0.2858,0.2861,0.2838,0.284,0.2841,0.2842,0,0,0,0,0,0,0,0.2567,0.2576,0.2663,0.2655,0.2659,0.2667,0.2676,0.271,0.275,0.2714,0.2717,0.2725,0.2789,0.2805,0.281,0.2863,0.2838,0.2841,0.2843,0.2844,0.2941,0.2941,0,0,0,0,0,0,0.2558,0.2573,0.266,0.2665,0.2614,0.267,0.2679,0.2698,0.275,0.2757,0.2726,0.2726,0.2799,0.2806,0.2813,0.285,0.2841,0.2845,0.2847,0.294,0.2941,0.2941,0,0,0,0,0,0,0.2556,0.2566,0.2657,0.262,0.2632,0.2672,0.2693,0.27,0.2716,0.2758,0.2766,0.2735,0.2799,0.2808,0.2844,0.2853,0.2846,0.2849,0.2939,0.294,0.2941,0.2923,0,0,0,0,0,0,0.2552,0.2565,0.2575,0.262,0.2634,0.2686,0.2694,0.2702,0.2722,0.2724,0.2769,0.2776,0.2799,0.2839,0.2848,0.2858,0.2852,0.2939,0.294,0.2941,0.2923,0.2923,0.2923,0,0,0,0,0,0.2548,0.2567,0.2575,0.2586,0.2647,0.2687,0.2695,0.2721,0.2722,0.2734,0.2761,0.2774,0.285,0.2842,0.2852,0.2864,0.2938,0.294,0.2941,0.2923,0.2923,0.2923,0,0,0,0,0,0,0.2522,0.2573,0.2583,0.2617,0.2647,0.2692,0.2706,0.272,0.2751,0.2752,0.2784,0.2794,0.2827,0.2849,0.2839,0.2894,0.2896,0.2899,0.2878,0.2879,0.2879,0.2873,0.2855,0,0,0,0,0,0.252,0.2547,0.2591,0.2616,0.2631,0.2666,0.2684,0.2702,0.2735,0.2748,0.2778,0.281,0.2841,0.2861,0.2892,0.2926,0.2937,0.2939,0.2939,0.2938,0.2941,0.2962,0.2964,0.2945,0.2945,0.2945,0,0,0.2517,0.2548,0.2563,0.2612,0.2637,0.2666,0.2677,0.2706,0.2727,0.2753,0.2789,0.2811,0.2849,0.2885,0.2902,0.2904,0.2949,0.294,0.2939,0.2942,0.2963,0.2965,0.2967,0.2945,0.2945,0.2945,0,0,0.2525,0.2551,0.2576,0.2602,0.264,0.2664,0.267,0.2713,0.2729,0.2765,0.2785,0.2812,0.2865,0.2891,0.2912,0.2932,0.2946,0.2941,0.2941,0.2961,0.2963,0.2964,0.2973,0.2975,0.2943,0.2943,0.2943,0,0.2517,0.2559,0.2587,0.2616,0.2637,0.2661,0.2687,0.2711,0.2758,0.2773,0.2774,0.2842,0.2869,0.2912,0.2917,0.2932,0.2941,0.2936,0.296,0.2962,0.2964,0.2972,0.2975,0.2942,0.2942,0.2942,0.2943,0,0.2547,0.2577,0.2592,0.2637,0.266,0.2687,0.272,0.274,0.2756,0.278,0.2818,0.2851,0.289,0.2901,0.2917,0.2947,0.2947,0.2954,0.2957,0.2965,0.2973,0.2977,0.2941,0.2942,0.2942,0.2942,0,0,0.2541,0.2602,0.2607,0.2628,0.2674,0.2697,0.2726,0.2764,0.2782,0.2813,0.2839,0.2884,0.2891,0.2914,0.2934,0.2951,0.2967,0.2956,0.2958,0.2958,0.3003,0.2998,0.3001,0.2976,0.2977,0.2977,0.3,0,0.2556,0.2608,0.2635,0.2676,0.2705,0.2729,0.2754,0.2785,0.2808,0.2836,0.2862,0.2894,0.29,0.2914,0.2933,0.2961,0.2976,0.2959,0.3002,0.3003,0.2992,0.3006,0.3,0.302,0.3004,0.3004,0.3005,0,0.2581,0.2613,0.2657,0.27,0.2713,0.2735,0.2773,0.2799,0.2836,0.2851,0.2878,0.2897,0.2929,0.2929,0.2975,0.2963,0.2982,0.2998,0.3,0.3006,0.3005,0.3013,0.3027,0.3031,0.301,0.301,0.3009,0,0.2574,0.2628,0.2661,0.2679,0.273,0.2745,0.2767,0.2803,0.2825,0.2858,0.2873,0.2909,0.2929,0.2957,0.2987,0.2983,0.303,0.3032,0.3045,0.3045,0.3054,0.3054,0.3073,0.3065,0.3065,0.3065,0.3065,0,0.2588,0.2615,0.2659,0.268,0.271,0.2741,0.2771,0.2795,0.2827,0.2853,0.2876,0.2901,0.2937,0.2967,0.299,0.3025,0.3034,0.3049,0.3055,0.3047,0.3045,0.3061,0.306,0.3065,0.3065,0.3065,0.3065,0,0.2585,0.2616,0.2654,0.27,0.2712,0.2733,0.2772,0.2794,0.2818,0.2852,0.2862,0.29,0.2937,0.2968,0.3016,0.3032,0.3069,0.3075,0.3056,0.306,0.3072,0.307,0.3102,0.3109,0.3095,0.3095,0.3095,0,0.2593,0.2614,0.2662,0.2681,0.2703,0.2734,0.2756,0.2788,0.281,0.2854,0.2871,0.2909,0.2941,0.2998,0.3031,0.3068,0.3077,0.3085,0.3082,0.3075,0.3078,0.3077,0.308,0.3085,0.3085,0.3085,0.3085,0,0.2604,0.2618,0.265,0.2687,0.2713,0.2744,0.2775,0.279,0.2828,0.2852,0.2889,0.2914,0.2964,0.3002,0.3043,0.3066,0.3083,0.3086,0.3091,0.3084,0.3073,0.3081,0.3057,0.3085,0.3085,0.3085,0.3085,0.3085,0.2607,0.2628,0.2665,0.27,0.2727,0.2756,0.2779,0.2807,0.2838,0.2881,0.2898,0.2936,0.2974,0.3031,0.3055,0.3086,0.3089,0.3096,0.3098,0.3099,0.3099,0.3067,0.3093,0.3093,0.3093,0.3093,0.3093,0,0.262,0.2646,0.2677,0.2721,0.2749,0.2761,0.2797,0.282,0.2853,0.2887,0.2918,0.2962,0.2999,0.3036,0.3075,0.3093,0.3102,0.3103,0.3102,0.3108,0.3093,0.3086,0.3095,0.3095,0.3095,0.3095,0.3095,0.3095,0.263,0.2666,0.2685,0.2735,0.2761,0.2798,0.2818,0.2846,0.2873,0.2921,0.2952,0.2975,0.3011,0.3053,0.3088,0.3098,0.3112,0.3111,0.3123,0.3109,0.3109,0.3108,0.3101,0.3114,0.3114,0.3135,0.3136,0.3136]}]]